www.pogodaiklimat.ru

Погода и климат >> Архив погоды >> Португалия >> Орта


ПОГОДА в Орте

  • Прогноз погоды в Орте
  • Монитор погоды в Орте

АРХИВ ПОГОДЫ в Орте

Время (UTC), дата Ветер
(напр.,м/с)
 
Видим.   Явления Облачность Т
(С)
Тd
(С)
f
(%)
Тe
(С)
Тes
(С)
Комфортность P
(гПа)
Po
(гПа)
Тmin
(С)
Tmax
(С)
R
(мм)
R24
(мм)
S
(см)
22 15.04 З 10-15
{23}
н/о н/о +12.6 +10.0 84 +9 +9 1001.9 995.3 0.2
23 15.04 З 13 н/о н/о +13.3 +9.3 77 +10 +10 1002.4 995.8
00 16.04 З 13-19
{20}
н/о н/о +12.7 +8.6 76 +9 +9 1001.4 994.7 0.2
01 16.04 З 14
{22}
н/о н/о +13.5 +8.6 72 +10 +10 1001.0 994.4
02 16.04 З 16-26
{26}
н/о н/о +13.7 +9.9 78 +10 +10 1000.7 994.0 0.4
03 16.04 З 16
{25}
н/о н/о +12.3 +10.8 91 +8 +8 1000.4 993.8 1
04 16.04 СЗ 14-21
{25}
н/о н/о +13.3 +9.0 75 +10 +10 1001.1 994.4 0.3
05 16.04 СЗ 11-19
{26}
н/о н/о +13.1 +9.8 80 +10 +10 1001.9 995.3 0.4
06 16.04 СЗ 9-17
{24}
н/о н/о +12.4 +9.9 85 +9 +9 1003.1 996.5 +10.2 2
07 16.04 СЗ 10-21
{21}
н/о н/о +12.9 +9.5 80 +10 +10 1003.9 997.2 0.7
08 16.04 СЗ 8-18
{20}
н/о н/о +12.5 +9.7 83 +9 +9 1005.4 998.7 0.3
09 16.04 СЗ 9-17
{20}
н/о н/о +13.6 +9.1 74 +11 +11 1005.9 999.3
10 16.04 СЗ 11-21
{22}
н/о н/о +14.5 +8.4 67 +12 +12 1006.7 1000.1
11 16.04 СЗ 12-20
{20}
н/о н/о +14.4 +8.8 69 +11 +11 1007.5 1000.9 1
12 16.04 СЗ 10-18
{21}
н/о н/о +15.3 +8.7 65 +13 +13 1008.7 1002.1 0.1
13 16.04 СЗ 8-17
{20}
н/о н/о +14.8 +10.0 73 +13 +13 1009.4 1002.8 0.6
14 16.04 СЗ 6-11
{16}
н/о н/о +14.7 +9.6 71 +13 +13 1009.8 1003.2
15 16.04 СЗ 6-15
{20}
н/о н/о +16.6 +9.9 65 +16 +16 1010.5 1003.9
16 16.04 СЗ 8-17
{18}
н/о н/о +15.1 +7.7 61 +13 +13 1010.9 1004.3
17 16.04 СЗ 6-13
{14}
н/о н/о +14.5 +8.0 65 +13 +13 1011.0 1004.4
18 16.04 СЗ 7-14
{14}
н/о н/о +14.7 +7.9 64 +13 +13 1011.9 1005.2 +16.7
19 16.04 С 7-12
{12}
н/о н/о +14.2 +8.1 67 +12 +12 1012.6 1006.0
20 16.04 СЗ 4-10
{11}
н/о н/о +13.8 +7.7 67 +12 +12 1013.1 1006.4
21 16.04 СЗ 4-9
{10}
н/о н/о +13.2 +6.9 66 +12 +12 1014.1 1007.4 2
22 16.04 С 3-5
{10}
н/о н/о +12.9 +7.3 69 +12 +12 1014.7 1008.0
23 16.04 С 3
{7}
н/о н/о +13.1 +7.5 69 +12 +12 1015.1 1008.4
00 17.04 СЗ 3-6
{8}
н/о н/о +13.0 +8.1 72 +12 +12 1015.5 1008.8
01 17.04 СЗ 4-8
{8}
н/о н/о +12.7 +7.1 69 +11 +11 1015.6 1008.9
02 17.04 С 4-6
{8}
н/о н/о +12.5 +7.4 71 +11 +11 1015.3 1008.6
03 17.04 СЗ 4-7
{8}
н/о н/о +12.8 +7.2 69 +11 +11 1015.3 1008.5
04 17.04 С 3-6
{7}
н/о н/о +12.5 +8.8 78 +11 +11 1015.2 1008.4
05 17.04 СЗ 2
{6}
н/о н/о +11.9 +8.6 80 +11 +11 1015.3 1008.5
06 17.04 СЗ 3
{7}
н/о н/о +12.2 +8.4 78 +11 +11 1015.3 1008.5 +11.8
07 17.04 СЗ 3
{7}
н/о н/о +13.0 +7.6 70 +12 +12 1015.8 1009.0
08 17.04 СЗ 2
{5}
н/о н/о +13.2 +7.7 69 +13 +13 1016.0 1009.3
09 17.04 нст 1
{5}
н/о н/о +14.9 +8.7 66 +15 +15 1016.2 1009.5
10 17.04 З 3-5
{6}
н/о н/о +15.9 +9.8 67 +15 +15 1016.4 1009.7
11 17.04 З 6 н/о н/о +15.6 +10.3 71 +14 +14 1017.2 1010.5
12 17.04 З 6
{9}
н/о н/о +15.6 +11.2 75 +14 +14 1017.6 1010.9
13 17.04 З 6
{10}
н/о н/о +15.1 +12.0 82 +13 +13 1017.6 1010.9
14 17.04 ЮЗ 5
{11}
н/о н/о +14.5 +13.6 94 +13 +13 1017.5 1010.8
15 17.04 ЮЗ 3-6
{8}
н/о н/о +14.1 +13.7 97 +13 +13 1017.4 1010.7 0.5
16 17.04 С 3
{8}
н/о н/о +14.4 +14.2 99 +13 +13 1017.5 1010.8 0.9
17 17.04 С 2
{6}
н/о н/о +15.1 +14.9 99 +15 +15 1017.1 1010.4 2
18 17.04 З 4-7
{7}
н/о н/о +15.7 +15.5 99 +15 +15 1017.3 1010.6 +16.2 4
19 17.04 ЮЗ 4-7
{7}
н/о н/о +15.9 +15.6 98 +15 +15 1017.7 1011.0
20 17.04 ЮЗ 4-7
{7}
н/о н/о +15.7 +15.5 99 +15 +15 1017.9 1011.2
21 17.04 ЮЗ 5-8
{8}
н/о н/о +15.7 +15.6 99 +14 +14 1018.3 1011.7 4
22 17.04 З 6
{9}
н/о н/о +15.8 +15.6 99 +14 +14 1019.0 1012.3
23 17.04 З 6
{10}
н/о н/о +15.8 +15.6 99 +14 +14 1019.3 1012.6
00 18.04 ЮЗ 6
{9}
н/о н/о +15.8 +15.6 99 +14 +14 1019.5 1012.8
01 18.04 З 4
{7}
н/о н/о +15.8 +15.6 99 +15 +15 1019.8 1013.1
02 18.04 ЮЗ 3-7
{7}
н/о н/о +15.8 +15.7 99 +15 +15 1019.9 1013.2
03 18.04 ЮЗ 5
{9}
н/о н/о +15.6 +15.5 99 +14 +14 1019.9 1013.2
04 18.04 ЮЗ 5 н/о н/о +15.5 +15.4 99 +14 +14 1019.6 1012.9
05 18.04 ЮЗ 4
{7}
н/о н/о +15.5 +15.4 99 +14 +14 1019.5 1012.8
06 18.04 ЮЗ 3-6
{7}
н/о н/о +15.7 +15.4 98 +15 +15 1019.6 1012.9 +15.5
07 18.04 С 2
{6}
н/о н/о +15.8 +15.6 99 +16 +16 1019.8 1013.1
08 18.04 ЮЗ 3-6
{6}
н/о н/о +15.7 +15.5 99 +15 +15 1020.7 1014.0
09 18.04 нст 3-6
{7}
н/о н/о +15.8 +15.5 98 1021.2 1014.5
10 18.04 ЮЗ 3-7
{7}
н/о н/о +16.0 +15.7 98 +15 +15 1021.5 1014.8
11 18.04 ЮЗ 3-7
{7}
н/о н/о +16.6 +16.0 96 +16 +16 1021.9 1015.2
12 18.04 Ю 3-9
{9}
н/о н/о +17.1 +16.2 94 +17 +17 1022.3 1015.7
13 18.04 ЮЗ 3-7
{8}
н/о н/о +17.4 +16.2 93 +17 +17 1022.1 1015.4
14 18.04 -7
{9}
н/о н/о +18.2 +16.5 90 1022.0 1015.3
15 18.04 ЮЗ 3-8
{8}
н/о н/о +18.4 +16.6 89 +19 +19 1022.0 1015.3
16 18.04 ЮЗ 3-7
{8}
н/о н/о +18.4 +16.5 89 +19 +19 1021.7 1015.0
17 18.04 С 3-7
{8}
н/о н/о +18.2 +16.4 89 +19 +19 1021.8 1015.1
18 18.04 С 3-7
{7}
н/о н/о +17.5 +16.4 93 +17 +17 1022.1 1015.4 +19.0
19 18.04 Ю 3-7
{7}
н/о н/о +17.2 +16.2 94 +17 +17 1022.4 1015.7
20 18.04 Ю 3-8
{10}
н/о н/о +16.6 +16.0 96 +16 +16 1022.7 1016.1
21 18.04 Ю 7 н/о н/о +16.4 +15.9 97 +15 +15 1023.1 1016.4
22 18.04 Ю 5-9
{10}
н/о н/о +16.6 +16.2 97 +16 +16 1023.8 1017.1
23 18.04 Ю 4-8
{9}
н/о н/о +16.4 +16.0 97 +16 +16 1024.2 1017.5
00 19.04 Ю 4-8
{9}
н/о н/о +16.4 +16.1 98 +16 +16 1024.2 1017.5
01 19.04 Ю 5-8
{9}
н/о н/о +16.4 +16.1 98 +15 +15 1024.1 1017.4
02 19.04 Ю 5-8
{9}
н/о н/о +16.4 +16.1 98 +15 +15 1024.2 1017.5
03 19.04 Ю 3-7
{9}
н/о н/о +16.3 +16.1 99 +16 +16 1023.9 1017.2
04 19.04 ЮЗ 3-8
{9}
н/о н/о +16.4 +16.1 98 +16 +16 1023.8 1017.1
05 19.04 ЮЗ 4-6
{8}
н/о н/о +16.3 +16.0 98 +16 +16 1023.8 1017.1
06 19.04 С 1
{6}
н/о н/о +16.3 +16.1 99 +17 +17 1023.9 1017.2 +16.2
07 19.04
{6}
н/о н/о +16.3 +16.2 99 1024.0 1017.3
08 19.04 С 2
{5}
н/о н/о +16.4 +16.2 99 +16 +16 1024.5 1017.8
09 19.04 Ю 4-6
{7}
н/о н/о +16.4 +16.3 99 +16 +16 1024.8 1018.1
10 19.04 Ю 6-9
{9}
н/о н/о +16.6 +16.5 99 +15 +15 1025.1 1018.4
11 19.04 Ю 6
{9}
н/о н/о +16.7 +16.6 99 +16 +16 1025.5 1018.8
12 19.04 Ю 6
{9}
н/о н/о +17.0 +16.9 99 +16 +16 1025.7 1019.0
13 19.04 Ю 6
{9}
н/о н/о +17.3 +17.0 98 +16 +16 1025.7 1019.0
14 19.04 Ю 5-9
{9}
н/о н/о +18.2 +17.2 94 +18 +18 1025.8 1019.1
15 19.04 Ю 6 н/о н/о +18.1 +17.0 93 +18 +18 1026.0 1019.3
16 19.04 Ю 6
{9}
н/о н/о +17.8 +16.7 93 +17 +17 1026.1 1019.4
17 19.04 Ю 4
{8}
н/о н/о +17.8 +16.7 93 +18 +18 1026.0 1019.3
18 19.04 Ю 4
{6}
н/о н/о +17.7 +16.7 94 +17 +17 1026.4 1019.7 +19.0
19 19.04 Ю 4
{6}
н/о н/о +17.3 +16.0 92 +17 +17 1026.7 1020.0
20 19.04 Ю 4-7
{7}
н/о н/о +17.3 +15.4 89 +17 +17 1027.1 1020.4
21 19.04 нст 3
{6}
н/о н/о +17.3 +15.0 86 1027.5 1020.8
22 19.04 Ю 5 н/о н/о +17.1 +15.0 87 +16 +16 1027.9 1021.2
23 19.04 Ю 3-7
{7}
н/о н/о +17.1 +15.1 88 +17 +17 1028.0 1021.3
00 20.04 Ю 3-6
{7}
н/о н/о +17.0 +15.1 89 +17 +17 1027.9 1021.1
01 20.04 Ю 5
{8}
н/о н/о +16.5 +15.7 95 +16 +16 1027.6 1020.9
02 20.04 Ю 5 н/о н/о +16.3 +15.4 94 +15 +15 1027.4 1020.7
03 20.04 Ю 3-6
{8}
н/о н/о +16.7 +15.1 90 +16 +16 1027.1 1020.4
04 20.04 С 2
{6}
н/о н/о +17.3 +14.0 81 +18 +18 1027.0 1020.3
05 20.04
{6}
н/о н/о +17.1 +14.2 83 1027.1 1020.4
06 20.04 С 1 н/о н/о +17.6 +13.5 77 +19 +19 1027.1 1020.5 +16.3
07 20.04 З 2 н/о н/о +17.0 +13.8 81 +17 +17 1027.4 1020.7
08 20.04 З 2 н/о н/о +17.5 +13.0 75 +18 +18 1027.7 1020.9
09 20.04 нст 2 н/о н/о +17.8 +13.9 78 +18 +18 1028.5 1021.8
10 20.04 н/о н/о +18.6 +14.8 79 1028.5 1021.9
11 20.04 С 1 н/о н/о +19.4 +16.4 83 +22 +22 комфорт 1028.9 1022.2
12 20.04 В 1 н/о н/о +17.1 +15.6 91 +18 +18 1029.3 1022.6
13 20.04 н/о н/о +17.5 +15.6 89 1029.4 1022.7
14 20.04 н/о н/о +18.7 +15.2 80 1029.1 1022.5
15 20.04 ЮВ 2 н/о н/о +18.2 +16.0 87 +19 +19 1029.3 1022.6
16 20.04 ЮВ 2 н/о н/о +17.8 +15.5 86 +18 +18 1029.3 1022.6
17 20.04
{5}
н/о н/о +19.5 +16.3 82 1029.2 1022.5
18 20.04 С 2 н/о н/о +19.1 +16.0 82 +21 +21 комфорт 1029.2 1022.5 +19.6
19 20.04 СВ 3
{6}
н/о н/о +18.4 +15.1 81 +19 +19 1029.4 1022.7
20 20.04 СВ 3
{5}
н/о н/о +17.0 +14.9 87 +17 +17 1029.8 1023.1
21 20.04 С 1 н/о н/о +16.4 +14.9 91 +17 +17 1030.3 1023.5
22 20.04 С 2 н/о н/о +16.2 +14.5 90 +16 +16 1030.7 1024.0
23 20.04 СВ 4-7
{7}
н/о н/о +16.4 +14.5 89 +16 +16 1030.8 1024.0
00 21.04 СВ 4
{7}
н/о н/о +16.4 +15.0 91 +16 +16 1030.8 1024.1
01 21.04 СВ 4-7
{7}
н/о н/о +16.1 +14.6 91 +15 +15 1030.4 1023.7
02 21.04 СВ 5-8
{8}
н/о н/о +16.2 +14.8 91 +15 +15 1030.3 1023.5
03 21.04 СВ 4
{8}
н/о н/о +16.0 +13.8 87 +15 +15 1029.7 1023.0
04 21.04 СВ 5-9
{9}
н/о н/о +15.9 +14.1 89 +15 +15 1029.3 1022.6
05 21.04 СВ 5-8
{10}
н/о н/о +15.8 +13.3 85 +15 +15 1029.2 1022.4
06 21.04 СВ 3-7
{7}
н/о н/о +15.9 +12.4 80 +15 +15 1029.1 1022.4 +15.7
07 21.04 СВ 5-8
{8}
н/о н/о +15.7 +13.7 88 +14 +14 1028.8 1022.1
08 21.04 СВ 5
{9}
н/о н/о +15.7 +11.6 77 +15 +15 1029.1 1022.3
09 21.04 СВ 6
{9}
н/о н/о +16.3 +12.0 76 +15 +15 1029.2 1022.5
10 21.04 СВ 5-8
{9}
н/о н/о +16.9 +11.9 72 +16 +16 1029.2 1022.5
11 21.04 СВ 6-9
{11}
н/о н/о +18.2 +12.5 69 +18 +18 1029.2 1022.5
12 21.04 СВ 5-9
{10}
н/о н/о +18.6 +12.2 66 +19 +19 1028.8 1022.1
13 21.04 СВ 5-8
{10}
н/о н/о +18.7 +12.8 69 +19 +19 1028.2 1021.5
14 21.04 СВ 4-6
{10}
н/о н/о +19.4 +13.5 69 +21 +21 комфорт 1027.8 1021.1
15 21.04 СВ 6-10
{10}
н/о н/о +19.4 +13.4 68 +20 +20 1027.6 1020.9
16 21.04 С 5-8
{10}
н/о н/о +19.9 +13.7 67 +22 +22 комфорт 1027.2 1020.5
17 21.04 С 6-10
{11}
н/о н/о +18.3 +13.0 71 +18 +18 1027.1 1020.4
18 21.04 СВ 5-8
{12}
н/о н/о +18.4 +13.9 75 +19 +19 1027.2 1020.5 +20.8
19 21.04 С 4-7
{10}
н/о н/о +17.0 +13.7 81 +17 +17 1027.1 1020.4
20 21.04 СВ 4-6
{9}
н/о н/о +16.7 +13.9 84 +16 +16 1026.4 1019.6
21 21.04 СВ 3
{9}
н/о н/о +16.0 +13.6 86 +16 +16 1026.5 1019.8
22 21.04 С 5-8
{9}
н/о н/о +16.5 +13.7 84 +16 +16 1026.9 1020.2
23 21.04 С 4-8
{11}
н/о н/о +16.5 +13.7 84 +16 +16 1026.4 1019.7
00 22.04 С 3-8
{9}
н/о н/о +16.6 +13.5 82 +16 +16 1026.0 1019.2
01 22.04 С 2-6
{6}
н/о н/о +16.2 +13.2 82 +16 +16 1025.5 1018.8
02 22.04 -7
{8}
н/о н/о +16.1 +12.6 80 1024.9 1018.2
03 22.04 С 6-10
{12}
н/о н/о +16.4 +13.5 83 +15 +15 1024.7 1018.0
04 22.04 С 4-8
{9}
н/о н/о +15.6 +14.3 92 +15 +15 1024.4 1017.6
05 22.04 С 3-6
{9}
н/о н/о +16.1 +13.0 82 +16 +16 1023.8 1017.1 0.1
06 22.04 С 1
{7}
н/о н/о +16.1 +13.8 86 +17 +17 1023.2 1016.5 +15.5
07 22.04 С 4-8
{10}
н/о н/о +14.5 +13.9 96 +13 +13 1023.3 1016.6 0.1
08 22.04 СВ 5-9
{10}
н/о н/о +13.7 +13.0 96 +12 +12 1024.0 1017.3 0.3
09 22.04 С 6
{11}
н/о н/о +13.3 +11.4 88 +11 +11 1024.4 1017.6 0.1
10 22.04 СВ 10-15
{15}
н/о н/о +14.0 +9.2 73 +11 +11 1024.1 1017.4
11 22.04 СВ 7-12
{15}
н/о н/о +15.1 +9.1 67 +13 +13 1024.3 1017.6
12 22.04 СВ 9
{15}
н/о н/о +15.3 +8.9 66 +13 +13 1024.6 1017.9
13 22.04 СВ 7-11
{16}
н/о н/о +16.1 +9.9 67 +15 +15 1024.6 1017.9
14 22.04 СВ 9-14
{14}
н/о н/о +16.6 +8.7 60 +15 +15 1023.9 1017.2
15 22.04 СВ 8-14
{14}
н/о н/о +16.3 +8.9 62 +15 +15 1024.4 1017.7
16 22.04 С 9
{15}
н/о н/о +15.8 +8.6 62 +14 +14 1023.8 1017.0
17 22.04 СВ 9 н/о н/о +15.2 +7.9 62 +13 +13 1023.4 1016.6
18 22.04 СВ 7-12
{14}
н/о н/о +15.0 +7.7 62 +13 +13 1023.3 1016.6 +17.0
19 22.04 СВ 7-11
{13}
н/о н/о +14.8 +8.2 65 +13 +13 1023.0 1016.2
20 22.04 С 8
{12}
н/о н/о +13.5 +8.0 69 +11 +11 1022.8 1016.0
21 22.04 С 4-7
{10}
н/о н/о +12.8 +7.9 72 +11 +11 1023.1 1016.3

 

Местоположение метеостанции Орта (Португалия): широта 38.52 долгота -28.63 высота над уровнем моря 62 м.

В архиве по умолчанию представлена погода в Орте за последнюю неделю. Архивные данные за месяц целиком и за предыдущие месяцы, начиная с января 2011 года, Вы можете получить, выбрав интересующий диапазон дат из раскрывающегося списка и нажав кнопку "Ввод!".


*Определитесь, кто Вы:
робот инопланетянин человек

Внимание! Время в таблицах - всемирное. Для получения местного времени необходимо прибавить поправку, которая равна 0 ч.

Смотрите также архив погоды в соседних городах и на ближайших метеорологических станциях:

Погода в Каштелу-Бранку (Португалия) (7 км)
Погода в Пико (Португалия) (17 км)
Погода в Сан-Жоржи (Португалия) (43 км)
Погода на Острове Грасьоса (Португалия) (81 км)
Погода в Ангра-ду-Эроижму (Португалия) (125 км)
Погода в Аэропорту Лажеша (Португалия) (136 км)
Погода на Флошише (Португалия) (240 км)
Погода в Понта-Делгаде (Португалия) (271 км)
Погода в Санта-Марии (Португалия) (350 км)
Погода в Фуншале (Португалия) (1246 км)

Пояснения к столбцам:

Ветер - указаны скорость ветра в м/с - средняя за 10 мин, порывы в срок и между сроками (в фигурных скобках) и направление, откуда дует ветер: С - северный, СВ - северо-восточный, В - восточный, ЮВ - юго-восточный, Ю - южный, ЮЗ - юго-западный, З - западный, СЗ - северо-западный.
Видимость - горизонтальная дальность видимости в метрах или километрах. При видимости от 1 до 10 км при отсутствии осадков обычно наблюдается дымка, при ухудшении видимости до 1 км и менее - туман. В сухую погоду видимость может ухудшаться дымом, пылью или мглою.
Явления - указаны атмосферные явления, наблюдавшиеся в срок или в последний час перед сроком; фигурными скобками обозначены явления, наблюдавшиеся между сроками (за 1-3 часа до срока); квадратными скобками обозначены град или гололедные отложения с указанием их диаметра в мм.
Облачность - указаны через наклонную черту общая и нижняя облачность в баллах и высота нижней границы облаков в метрах; квадратными скобками обозначены формы облаков: Ci - перистые, Cs - перисто-слоистые, Cc - перисто-кучевые, Ac - высококучевые, As - высокослоистые, Sc - слоисто-кучевые, Ns - слоисто-дождевые, Cu - кучевые, Cb - кучево-дождевые. Подробнее классификацию облаков см. в Атласе облаков (PDF).
T - Температура воздуха - температура, измеренная на высоте 2 м над землей.
Td - Температура точки росы - температура, при понижении до которой содержащийся в воздухе водяной пар достигнет насыщения.
f - Относительная влажность воздуха - влажноcть воздуха, измеренная на высоте 2 м над землей.
Te - Эффективная температура - температура, которую ощущает одетый по сезону человек в тени. Характеристика душности погоды. При расчете учитывается влияние влажности воздуха и скорости ветра на теплоощущения человека.
Tes - Эффективная температура на солнце - температура, которую ощущает человек, с поправкой на солнечный нагрев. Характеристика знойности погоды. Зависит от высоты солнца над горизонтом, облачности и скорости ветра. Ночью, в пасмурную погоду, а также при ветре 12 м/с и более поправка равна нулю.
P - Атмосферное давление - приведенное к уровню моря атмосферное давление.
Po - Атмосферное давление - измеренное на уровне метеостанции атмосферное давление.
Tmin - Минимальная температура - минимум температуры воздуха на высоте 2 м над землей.
Tmax - Максимальная температура - максимум температуры воздуха на высоте 2 м над землей.
R - Количество осадков - Количество выпавших осадков за период времени, мм. При наведении курсора мыши на число - период времени, за который выпало указанное количество осадков.
R24 - Количество осадков - Количество выпавших осадков за 24 часа, мм.
S - Снежный покров - Высота снежного покрова, см. При наведении курсора мыши на число - состояние снежного покрова и степень покрытия местности в баллах.